EZY67PB EGAA-EGGP

Flight info

Callsign EZY67PB
Flight time 0h 31m
Altitude 25000
Route LISBO L603 PEPOD Q38 SOSIM/N0383F230 L28 PENIL
Aircraft A319/M-SDE3FGHIRWY/LB1

Departure

Time 2026-05-07 05:37
Airport Belfast International Airport (EGAA)

Arrival

Time 2026-05-07 06:08
Airport Liverpool John Lennon Airport (EGGP)
Time Latitude Longitude Altitude Speed Heading
2026-05-07 05:03 54.66144 -6.21387 272 ft 0 kts 245°
2026-05-07 05:27 54.66149 -6.21369 272 ft 3 kts 244°
2026-05-07 05:27 54.66159 -6.21334 274 ft 3 kts 233°
2026-05-07 05:28 54.66174 -6.21310 272 ft 3 kts 193°
2026-05-07 05:28 54.66185 -6.21309 277 ft 0 kts 155°
2026-05-07 05:30 54.66184 -6.21308 277 ft 1 kts 155°
2026-05-07 05:31 54.66174 -6.21300 278 ft 3 kts 155°
2026-05-07 05:31 54.66150 -6.21281 274 ft 5 kts 156°
2026-05-07 05:31 54.66116 -6.21255 272 ft 6 kts 154°
2026-05-07 05:31 54.66075 -6.21221 272 ft 7 kts 154°
2026-05-07 05:32 54.66049 -6.21153 272 ft 8 kts 82°
2026-05-07 05:32 54.66072 -6.21060 272 ft 9 kts 65°
2026-05-07 05:32 54.66100 -6.20957 275 ft 10 kts 65°
2026-05-07 05:32 54.66134 -6.20830 274 ft 14 kts 65°
2026-05-07 05:33 54.66181 -6.20664 273 ft 16 kts 62°
2026-05-07 05:33 54.66230 -6.20487 276 ft 17 kts 68°
2026-05-07 05:33 54.66277 -6.20298 272 ft 18 kts 65°
2026-05-07 05:33 54.66331 -6.20101 275 ft 19 kts 65°
2026-05-07 05:34 54.66378 -6.19925 274 ft 9 kts 65°
2026-05-07 05:34 54.66396 -6.19816 272 ft 10 kts 91°
2026-05-07 05:34 54.66371 -6.19726 272 ft 7 kts 134°
2026-05-07 05:34 54.66362 -6.19715 272 ft 0 kts 147°
2026-05-07 05:35 54.66356 -6.19708 272 ft 4 kts 147°
2026-05-07 05:35 54.66325 -6.19681 276 ft 6 kts 154°
2026-05-07 05:35 54.66284 -6.19649 276 ft 6 kts 157°
2026-05-07 05:35 54.66260 -6.19684 272 ft 4 kts 246°
2026-05-07 05:36 54.66260 -6.19686 272 ft 0 kts 246°
2026-05-07 05:36 54.66258 -6.19691 272 ft 2 kts 246°
2026-05-07 05:36 54.66190 -6.19948 274 ft 62 kts 245°
2026-05-07 05:36 54.65896 -6.21034 272 ft 135 kts 245°
2026-05-07 05:37 54.65475 -6.22604 828 ft 140 kts 243°
2026-05-07 05:37 54.65073 -6.24144 1617 ft 140 kts 242°
2026-05-07 05:37 54.64670 -6.25712 2272 ft 150 kts 242°
2026-05-07 05:37 54.64222 -6.27451 2831 ft 166 kts 242°
2026-05-07 05:38 54.63706 -6.29336 3380 ft 181 kts 238°
2026-05-07 05:38 54.62813 -6.30949 3896 ft 196 kts 208°
2026-05-07 05:38 54.61389 -6.31255 4361 ft 227 kts 168°
2026-05-07 05:38 54.59987 -6.29699 5046 ft 254 kts 138°
2026-05-07 05:39 54.58880 -6.27256 6097 ft 264 kts 127°
2026-05-07 05:39 54.57893 -6.24502 7022 ft 273 kts 123°
2026-05-07 05:39 54.56948 -6.21642 8063 ft 278 kts 122°
2026-05-07 05:39 54.55980 -6.18734 9115 ft 280 kts 123°
2026-05-07 05:40 54.54972 -6.15816 10084 ft 287 kts 123°
2026-05-07 05:40 54.53884 -6.12771 10534 ft 310 kts 124°
2026-05-07 05:40 54.52717 -6.09601 11173 ft 323 kts 126°
2026-05-07 05:40 54.51319 -6.06530 12016 ft 329 kts 132°
2026-05-07 05:41 54.49844 -6.03486 12875 ft 334 kts 133°
2026-05-07 05:41 54.48348 -6.00406 13717 ft 340 kts 133°
2026-05-07 05:41 54.46811 -5.97242 14473 ft 346 kts 133°
2026-05-07 05:41 54.45262 -5.94051 15247 ft 349 kts 133°
2026-05-07 05:42 54.43694 -5.90827 16018 ft 353 kts 133°
2026-05-07 05:42 54.42110 -5.87578 16780 ft 357 kts 133°
2026-05-07 05:42 54.40505 -5.84287 17545 ft 361 kts 133°
2026-05-07 05:42 54.38887 -5.80962 18300 ft 365 kts 133°
2026-05-07 05:43 54.37255 -5.77608 18931 ft 369 kts 133°
2026-05-07 05:43 54.35601 -5.74213 19580 ft 372 kts 132°
2026-05-07 05:43 54.33931 -5.70793 20239 ft 376 kts 132°
2026-05-07 05:43 54.32240 -5.67343 20900 ft 380 kts 132°
2026-05-07 05:44 54.30533 -5.63869 21541 ft 384 kts 132°
2026-05-07 05:44 54.28802 -5.60353 22185 ft 388 kts 132°
2026-05-07 05:44 54.27056 -5.56802 22799 ft 392 kts 131°
2026-05-07 05:44 54.25364 -5.53121 23416 ft 397 kts 128°
2026-05-07 05:45 54.23726 -5.49289 23953 ft 401 kts 127°
2026-05-07 05:45 54.22117 -5.45379 24486 ft 404 kts 126°
2026-05-07 05:45 54.20503 -5.41420 24860 ft 407 kts 126°
2026-05-07 05:45 54.18877 -5.37464 24953 ft 403 kts 127°
2026-05-07 05:46 54.17307 -5.33689 24969 ft 390 kts 127°
2026-05-07 05:46 54.15740 -5.29958 24974 ft 385 kts 127°
2026-05-07 05:46 54.14168 -5.26250 24977 ft 386 kts 128°
2026-05-07 05:46 54.12585 -5.22549 24971 ft 386 kts 128°
2026-05-07 05:47 54.11001 -5.18858 24977 ft 384 kts 128°
2026-05-07 05:47 54.09421 -5.15184 24978 ft 384 kts 127°
2026-05-07 05:47 54.07847 -5.11517 24978 ft 383 kts 127°
2026-05-07 05:47 54.06279 -5.07853 24979 ft 383 kts 128°
2026-05-07 05:48 54.04708 -5.04180 24988 ft 384 kts 128°
2026-05-07 05:48 54.03134 -5.00506 24990 ft 385 kts 127°
2026-05-07 05:48 54.01557 -4.96839 24988 ft 384 kts 128°
2026-05-07 05:48 53.99971 -4.93162 24877 ft 384 kts 128°
2026-05-07 05:49 53.98401 -4.89530 24637 ft 380 kts 128°
2026-05-07 05:49 53.96837 -4.85923 24398 ft 378 kts 128°
2026-05-07 05:49 53.95282 -4.82341 24167 ft 375 kts 128°
2026-05-07 05:49 53.93754 -4.78821 23931 ft 375 kts 129°
2026-05-07 05:50 53.92209 -4.75258 23700 ft 374 kts 128°
2026-05-07 05:50 53.90665 -4.71699 23443 ft 374 kts 128°
2026-05-07 05:50 53.89129 -4.68167 23161 ft 370 kts 128°
2026-05-07 05:50 53.87606 -4.64673 22885 ft 367 kts 128°
2026-05-07 05:51 53.86088 -4.61206 22609 ft 365 kts 128°
2026-05-07 05:51 53.84579 -4.57762 22340 ft 363 kts 128°
2026-05-07 05:51 53.83078 -4.54336 22071 ft 359 kts 128°
2026-05-07 05:51 53.81686 -4.50866 21669 ft 356 kts 120°
2026-05-07 05:52 53.80668 -4.47061 21225 ft 354 kts 112°
2026-05-07 05:52 53.79778 -4.43192 20785 ft 352 kts 113°
2026-05-07 05:52 53.78887 -4.39358 20349 ft 349 kts 113°
2026-05-07 05:52 53.77999 -4.35543 19918 ft 347 kts 113°
2026-05-07 05:53 53.77117 -4.31756 19481 ft 346 kts 113°
2026-05-07 05:53 53.76238 -4.27988 19057 ft 344 kts 113°
2026-05-07 05:53 53.75357 -4.24230 18640 ft 343 kts 114°
2026-05-07 05:53 53.74475 -4.20484 18199 ft 342 kts 114°
2026-05-07 05:54 53.73597 -4.16770 17733 ft 340 kts 114°
2026-05-07 05:54 53.72723 -4.13074 17332 ft 337 kts 114°
2026-05-07 05:54 53.71868 -4.09459 16933 ft 335 kts 114°
2026-05-07 05:54 53.70997 -4.05772 16524 ft 333 kts 114°
2026-05-07 05:55 53.70152 -4.02198 16136 ft 331 kts 114°
2026-05-07 05:55 53.69303 -3.98601 15742 ft 330 kts 114°
2026-05-07 05:55 53.68454 -3.95013 15347 ft 328 kts 114°
2026-05-07 05:55 53.67605 -3.91442 14950 ft 327 kts 114°
2026-05-07 05:56 53.66758 -3.87890 14553 ft 326 kts 114°
2026-05-07 05:56 53.65909 -3.84343 14127 ft 326 kts 114°
2026-05-07 05:56 53.65061 -3.80800 13717 ft 326 kts 114°
2026-05-07 05:56 53.64215 -3.77266 13300 ft 324 kts 114°
2026-05-07 05:57 53.63376 -3.73761 12913 ft 321 kts 114°
2026-05-07 05:57 53.62541 -3.70280 12511 ft 319 kts 114°
2026-05-07 05:57 53.61575 -3.66953 12116 ft 314 kts 125°
2026-05-07 05:57 53.60223 -3.64130 11799 ft 305 kts 138°
2026-05-07 05:58 53.58709 -3.61698 11553 ft 298 kts 139°
2026-05-07 05:58 53.57212 -3.59270 11126 ft 299 kts 139°
2026-05-07 05:58 53.55723 -3.56853 10746 ft 297 kts 139°
2026-05-07 05:58 53.54237 -3.54442 10375 ft 295 kts 139°
2026-05-07 05:59 53.52764 -3.52057 10006 ft 294 kts 139°
2026-05-07 05:59 53.51297 -3.49687 9611 ft 292 kts 139°
2026-05-07 05:59 53.49838 -3.47332 9202 ft 289 kts 139°
2026-05-07 05:59 53.48462 -3.44880 8790 ft 289 kts 129°
2026-05-07 06:00 53.47453 -3.41972 8431 ft 288 kts 117°
2026-05-07 06:00 53.46609 -3.38999 8303 ft 275 kts 118°
2026-05-07 06:00 53.45812 -3.36228 8160 ft 261 kts 118°
2026-05-07 06:00 53.44818 -3.33802 7885 ft 248 kts 142°
2026-05-07 06:01 53.43319 -3.32469 7458 ft 245 kts 171°
2026-05-07 06:01 53.41659 -3.32488 7152 ft 236 kts 192°
2026-05-07 06:01 53.40037 -3.32861 6722 ft 235 kts 186°
2026-05-07 06:01 53.38408 -3.32887 6204 ft 234 kts 178°
2026-05-07 06:02 53.36790 -3.32526 5619 ft 235 kts 170°
2026-05-07 06:02 53.35225 -3.31774 5121 ft 234 kts 162°
2026-05-07 06:02 53.33750 -3.30618 4684 ft 238 kts 149°
2026-05-07 06:02 53.32518 -3.28716 4332 ft 242 kts 128°
2026-05-07 06:03 53.31740 -3.26234 3907 ft 246 kts 109°
2026-05-07 06:03 53.31525 -3.23381 3463 ft 251 kts 88°
2026-05-07 06:03 53.31664 -3.20508 3190 ft 245 kts 87°
2026-05-07 06:03 53.31805 -3.17700 2935 ft 240 kts 87°
2026-05-07 06:04 53.31940 -3.14948 2678 ft 236 kts 88°
2026-05-07 06:04 53.32072 -3.12255 2522 ft 228 kts 87°
2026-05-07 06:04 53.32197 -3.09678 2494 ft 215 kts 88°
2026-05-07 06:04 53.32313 -3.07269 2497 ft 200 kts 89°
2026-05-07 06:05 53.32423 -3.04975 2315 ft 197 kts 90°
2026-05-07 06:05 53.32531 -3.02705 2056 ft 194 kts 90°
2026-05-07 06:05 53.32637 -3.00485 1798 ft 189 kts 90°
2026-05-07 06:05 53.32738 -2.98378 1543 ft 176 kts 91°
2026-05-07 06:06 53.32830 -2.96478 1313 ft 156 kts 91°
2026-05-07 06:06 53.32910 -2.94775 1099 ft 138 kts 91°
2026-05-07 06:06 53.32982 -2.93249 910 ft 126 kts 92°
2026-05-07 06:06 53.33048 -2.91807 737 ft 123 kts 89°
2026-05-07 06:07 53.33111 -2.90417 563 ft 121 kts 91°
2026-05-07 06:07 53.33177 -2.88994 401 ft 122 kts 91°
2026-05-07 06:07 53.33243 -2.87577 222 ft 123 kts 90°
2026-05-07 06:07 53.33306 -2.86166 81 ft 118 kts 81°
2026-05-07 06:08 53.33360 -2.85038 71 ft 73 kts 85°
2026-05-07 06:08 53.33387 -2.84441 78 ft 41 kts 86°
2026-05-07 06:08 53.33407 -2.83992 82 ft 36 kts 85°
2026-05-07 06:08 53.33417 -2.83783 80 ft 24 kts 85°
2026-05-07 06:09 53.33453 -2.83621 74 ft 13 kts 12°
2026-05-07 06:09 53.33535 -2.83633 67 ft 11 kts 354°
2026-05-07 06:09 53.33588 -2.83674 70 ft 8 kts 289°
2026-05-07 06:09 53.33583 -2.83786 73 ft 11 kts 263°
2026-05-07 06:10 53.33577 -2.83927 73 ft 13 kts 268°
2026-05-07 06:10 53.33571 -2.84070 76 ft 11 kts 265°
2026-05-07 06:10 53.33565 -2.84201 78 ft 12 kts 265°
2026-05-07 06:10 53.33557 -2.84348 73 ft 14 kts 265°
2026-05-07 06:11 53.33549 -2.84513 79 ft 14 kts 265°
2026-05-07 06:11 53.33540 -2.84675 80 ft 14 kts 264°
2026-05-07 06:11 53.33534 -2.84831 87 ft 13 kts 267°
2026-05-07 06:11 53.33529 -2.84981 85 ft 14 kts 266°
2026-05-07 06:12 53.33521 -2.85148 85 ft 15 kts 265°
2026-05-07 06:12 53.33513 -2.85333 84 ft 17 kts 265°
2026-05-07 06:12 53.33507 -2.85471 84 ft 9 kts 265°
2026-05-07 06:12 53.33541 -2.85505 87 ft 7 kts 356°
2026-05-07 06:13 53.33589 -2.85512 87 ft 6 kts 355°
2026-05-07 06:13 53.33615 -2.85470 87 ft 6 kts 67°
2026-05-07 06:13 53.33638 -2.85435 88 ft 3 kts 17°
2026-05-07 06:13 53.33658 -2.85437 88 ft 2 kts 354°
2026-05-07 06:14 53.33672 -2.85440 86 ft 1 kts 353°
2026-05-07 06:14 53.33673 -2.85440 86 ft 0 kts 353°